Location: USNO
(38.9242°N, 77.0663°W)
Time: 09:45:59
(UTC-04:00)

Envisat - Pass Details

Date: 10 October 2017
Orbit: 764 x 766 km, 98.2° (Epoch: 22 October)

Event Time Altitude Azimuth Distance (km) Brightness Sun altitude
Exits shadow 19:27:28 12° 69° (ENE) 2,156 4.7 -10.7°
Maximum altitude 19:28:09 12° 61° (ENE) 2,138 4.8 -10.8°
Drops below altitude 10° 19:30:11 10° 37° (NE) 2,308 5.1 -11.2°
Sets 19:33:53 0° 9° (N) 3,239 6.2 -11.9°
